Weather History for Santa Monica, CA

Change the Weather History Date:

Wednesday, October 9, 2013

  Actual Average Record
Temperature  
Mean Temperature 60 °F -  
Max Temperature 64 °F 78 °F 102 °F (1976)
Min Temperature 54 °F 59 °F 47 °F (1949)
Degree Days  
Heating Degree Days 6    
Growing Degree Days 10 (Base 50)    
Moisture  
Dew Point 50 °F    
Average Humidity 70    
Maximum Humidity 88    
Minimum Humidity 58    
Precipitation  
Precipitation 0.20 in - - ()
Sea Level Pressure  
Sea Level Pressure 29.77 in    
Wind  
Wind Speed 6 mph (SW)    
Max Wind Speed 14 mph    
Max Gust Speed 22 mph    
Visibility 9 miles    
Events Rain    
Averages and records for this station are not official NWS values.
T = Trace of Precipitation, MM = Missing Value Source: NWS Daily Summary

Daily Weather History Graph

Daily Weather History Graph

Search for Another Location

Airport:

Trip Planner

Search our weather history database for the weather conditions in past years. The results will help you decide how hot, cold, wet, or windy it might be!

Date:

Astronomy

Oct. 09, 2013 Rise Set
Actual Time 6:54 AM PDT 6:26 PM PDT
Civil Twilight 6:29 AM PDT 6:51 PM PDT
Nautical Twilight 6:00 AM PDT 7:20 PM PDT
Astronomical Twilight 5:31 AM PDT 7:49 PM PDT
Moon 11:44 AM PDT (10/9) 10:16 PM PDT (10/9)
Length of Visible Light 12h 22m
Length of Day
11h 32m
Waxing Crescent, 26% of the Moon is Illuminated
Oct 9
Waxing Crescent
Oct 11
First Quarter
Oct 18
Full
Oct 26
Last Quarter
Nov 3
New

Hourly Weather History & Observations

Time (PDT) Temp. Dew Point Humidity Pressure Visibility Wind Dir Wind Speed Gust Speed Precip Events Conditions
12:51 AM 64.0 °F 52.0 °F 65% 29.81 in 10.0 mi South 5.8 mph - N/A   Overcast
1:51 AM 63.0 °F 53.1 °F 70% 29.80 in 10.0 mi SE 5.8 mph - N/A   Overcast
1:59 AM 62.6 °F 51.8 °F 68% 29.80 in 10.0 mi SSE 6.9 mph - N/A   Overcast
2:19 AM 62.6 °F 53.6 °F 72% 29.79 in 10.0 mi South 5.8 mph - N/A   Overcast
2:31 AM 62.6 °F 53.6 °F 72% 29.79 in 10.0 mi SSE 4.6 mph - N/A   Overcast
2:40 AM 62.6 °F 51.8 °F 68% 29.79 in 10.0 mi SSE 6.9 mph - N/A   Overcast
2:51 AM 63.0 °F 52.0 °F 67% 29.78 in 10.0 mi South 5.8 mph - N/A   Overcast
3:51 AM 62.1 °F 53.1 °F 72% 29.77 in 10.0 mi SW 8.1 mph - 0.00 in Rain Light Rain
4:10 AM 62.6 °F 53.6 °F 72% 29.77 in 10.0 mi SW 9.2 mph - 0.00 in   Overcast
4:51 AM 61.0 °F 52.0 °F 72% 29.76 in 10.0 mi SSW 12.7 mph 17.3 mph 0.00 in   Overcast
5:39 AM 60.8 °F 50.0 °F 68% 29.77 in 10.0 mi SW 9.2 mph - N/A   Overcast
5:51 AM 61.0 °F 50.0 °F 67% 29.77 in 10.0 mi SW 9.2 mph - N/A   Overcast
6:51 AM 61.0 °F 48.0 °F 62% 29.78 in 10.0 mi SW 5.8 mph - N/A   Overcast
7:51 AM 61.0 °F 48.9 °F 64% 29.77 in 10.0 mi SSW 8.1 mph - N/A   Scattered Clouds
8:51 AM 62.1 °F 48.0 °F 60% 29.79 in 10.0 mi SSW 4.6 mph - N/A   Overcast
9:51 AM 62.1 °F 46.9 °F 58% 29.79 in 10.0 mi South 4.6 mph - N/A   Overcast
10:51 AM 59.0 °F 52.0 °F 78% 29.79 in 3.0 mi WNW 5.8 mph - 0.04 in Rain Rain
11:33 AM 57.2 °F 53.6 °F 88% 29.77 in 3.0 mi Calm Calm - 0.07 in Rain Light Rain
11:40 AM 57.2 °F 53.6 °F 88% 29.77 in 3.0 mi Calm Calm - 0.12 in Rain Rain
11:42 AM 57.2 °F 53.6 °F 88% 29.77 in 3.0 mi Calm Calm - 0.13 in Rain Rain
11:51 AM 57.9 °F 54.0 °F 87% 29.77 in 5.0 mi Calm Calm - 0.13 in Rain Light Rain
12:25 PM 60.8 °F 55.4 °F 82% 29.76 in 10.0 mi Calm Calm - 0.01 in   Overcast
12:51 PM 61.0 °F 52.0 °F 72% 29.75 in 10.0 mi WSW 8.1 mph - 0.01 in   Overcast
1:51 PM 61.0 °F 51.1 °F 70% 29.73 in 10.0 mi WSW 10.4 mph 21.9 mph 0.01 in   Overcast
2:51 PM 59.0 °F 50.0 °F 72% 29.73 in 10.0 mi West 6.9 mph 17.3 mph 0.01 in Rain Light Rain
3:51 PM 60.1 °F 48.9 °F 67% 29.72 in 10.0 mi WSW 13.8 mph 20.7 mph 0.00 in   Mostly Cloudy
4:51 PM 62.1 °F 48.9 °F 62% 29.72 in 10.0 mi SW 12.7 mph - 0.00 in   Mostly Cloudy
5:51 PM 61.0 °F 46.9 °F 60% 29.72 in 10.0 mi West 8.1 mph 17.3 mph N/A   Mostly Cloudy
6:51 PM 60.1 °F 46.9 °F 62% 29.72 in 10.0 mi West 9.2 mph 17.3 mph N/A   Scattered Clouds
7:51 PM 59.0 °F 44.1 °F 58% 29.74 in 10.0 mi West 5.8 mph - N/A   Mostly Cloudy
8:51 PM 57.9 °F 46.0 °F 65% 29.75 in 10.0 mi Calm Calm - N/A   Clear
9:51 PM 55.9 °F 45.0 °F 67% 29.77 in 10.0 mi NW 3.5 mph - N/A   Clear
10:51 PM 55.0 °F 45.0 °F 69% 29.80 in 10.0 mi Calm Calm - N/A   Overcast
11:51 PM 54.0 °F 46.0 °F 75% 29.81 in 10.0 mi Calm Calm - N/A   Partly Cloudy